Time,TemperatureF,DewpointF,PressureIn,WindDirection,WindDirectionDegrees,WindSpeedMPH,WindSpeedGustMPH,Humidity,HourlyPrecipIn,Conditions,Clouds,dailyrainin,SoftwareType,DateUTC
2013-05-12 00:00:00,48.0,44.9,29.76,SW,225,7.0,11.0,89,0.00,,---,0.11,VWS V14.01,2013-05-12 04:00:00,
2013-05-12 00:01:00,48.0,44.9,29.76,South,180,9.0,13.0,89,0.00,,---,0.11,VWS V14.01,2013-05-12 04:01:00,
2013-05-12 00:02:00,48.0,44.9,29.75,SW,225,7.0,11.0,89,0.00,,---,0.00,VWS V14.01,2013-05-12 04:02:00,
2013-05-12 00:07:00,48.0,44.9,29.75,SSW,202,8.0,13.0,89,0.00,,---,0.00,VWS V14.01,2013-05-12 04:07:00,
2013-05-12 00:13:00,48.0,44.9,29.75,WSW,248,5.0,16.0,89,0.00,,---,0.00,VWS V14.01,2013-05-12 04:13:00,
2013-05-12 00:18:00,48.0,44.9,29.75,SW,225,14.0,18.0,89,0.00,,---,0.00,VWS V14.01,2013-05-12 04:18:00,
2013-05-12 00:23:00,48.0,44.9,29.75,SSW,202,6.0,10.0,89,0.00,,---,0.00,VWS V14.01,2013-05-12 04:23:00,
2013-05-12 00:28:00,48.0,44.9,29.75,WSW,248,11.0,13.0,89,0.00,,---,0.00,VWS V14.01,2013-05-12 04:28:00,
2013-05-12 00:33:00,48.0,44.9,29.76,SW,225,16.0,17.0,89,0.00,,---,0.00,VWS V14.01,2013-05-12 04:33:00,
2013-05-12 00:38:00,49.0,45.9,29.75,SSW,202,10.0,17.0,89,0.00,,---,0.00,VWS V14.01,2013-05-12 04:38:00,
2013-05-12 00:43:00,49.0,45.6,29.75,WSW,248,8.0,12.0,88,0.00,,---,0.00,VWS V14.01,2013-05-12 04:43:00,
2013-05-12 00:48:00,49.0,45.6,29.76,SSW,202,10.0,16.0,88,0.00,,---,0.00,VWS V14.01,2013-05-12 04:48:00,
2013-05-12 00:53:00,47.0,42.4,29.79,NW,315,14.0,38.0,84,0.00,,---,0.00,VWS V14.01,2013-05-12 04:53:00,
2013-05-12 00:58:00,45.0,40.8,29.79,WNW,292,12.0,38.0,85,0.00,,---,0.00,VWS V14.01,2013-05-12 04:58:00,
2013-05-12 01:03:00,45.0,41.4,29.79,NNW,338,5.0,17.0,87,0.00,,---,0.00,VWS V14.01,2013-05-12 05:03:00,
2013-05-12 01:08:00,45.0,41.7,29.79,WNW,292,3.0,17.0,88,0.00,,---,0.00,VWS V14.01,2013-05-12 05:08:00,
2013-05-12 01:14:00,44.0,40.1,29.79,WNW,292,10.0,21.0,86,0.00,,---,0.00,VWS V14.01,2013-05-12 05:14:00,
2013-05-12 01:19:00,44.0,40.4,29.79,West,270,12.0,26.0,87,0.00,,---,0.00,VWS V14.01,2013-05-12 05:19:00,
2013-05-12 01:24:00,44.0,40.4,29.80,WNW,292,10.0,20.0,87,0.00,,---,0.00,VWS V14.01,2013-05-12 05:24:00,
2013-05-12 01:29:00,44.0,40.4,29.80,WNW,292,8.0,20.0,87,0.00,,---,0.00,VWS V14.01,2013-05-12 05:29:00,
2013-05-12 01:34:00,43.0,38.8,29.80,West,270,11.0,29.0,85,0.00,,---,0.00,VWS V14.01,2013-05-12 05:34:00,
2013-05-12 01:39:00,43.0,39.1,29.80,West,270,13.0,29.0,86,0.00,,---,0.00,VWS V14.01,2013-05-12 05:39:00,
2013-05-12 01:44:00,43.0,39.1,29.80,West,270,8.0,19.0,86,0.00,,---,0.00,VWS V14.01,2013-05-12 05:44:00,
2013-05-12 01:49:00,43.0,39.1,29.81,WSW,248,13.0,19.0,86,0.00,,---,0.00,VWS V14.01,2013-05-12 05:49:00,
2013-05-12 01:54:00,43.0,38.8,29.80,WNW,292,20.0,25.0,85,0.00,,---,0.00,VWS V14.01,2013-05-12 05:54:00,
2013-05-12 01:59:00,43.0,38.8,29.81,WNW,292,14.0,27.0,85,0.00,,---,0.00,VWS V14.01,2013-05-12 05:59:00,
2013-05-12 02:04:00,42.0,37.5,29.81,WNW,292,18.0,24.0,84,0.00,,---,0.00,VWS V14.01,2013-05-12 06:04:00,
2013-05-12 02:09:00,42.0,37.5,29.80,WNW,292,14.0,26.0,84,0.00,,---,0.00,VWS V14.01,2013-05-12 06:09:00,
2013-05-12 02:14:00,42.0,37.8,29.80,WNW,292,18.0,26.0,85,0.00,,---,0.00,VWS V14.01,2013-05-12 06:14:00,
2013-05-12 02:20:00,42.0,38.4,29.80,WNW,292,11.0,26.0,87,0.00,,---,0.00,VWS V14.01,2013-05-12 06:20:00,
2013-05-12 02:25:00,42.0,38.4,29.80,West,270,18.0,25.0,87,0.00,,---,0.00,VWS V14.01,2013-05-12 06:25:00,
2013-05-12 02:30:00,41.0,37.7,29.81,WNW,292,5.0,26.0,88,0.00,,---,0.00,VWS V14.01,2013-05-12 06:30:00,
2013-05-12 02:35:00,41.0,37.7,29.81,West,270,19.0,26.0,88,0.00,,---,0.00,VWS V14.01,2013-05-12 06:35:00,
2013-05-12 02:40:00,41.0,37.7,29.81,WNW,292,18.0,26.0,88,0.00,,---,0.00,VWS V14.01,2013-05-12 06:40:00,
2013-05-12 02:45:00,40.0,36.7,29.81,WNW,292,7.0,28.0,88,0.00,,---,0.00,VWS V14.01,2013-05-12 06:45:00,
2013-05-12 02:50:00,40.0,36.5,29.82,NNW,338,9.0,28.0,87,0.00,,---,0.00,VWS V14.01,2013-05-12 06:50:00,
2013-05-12 02:55:00,40.0,35.9,29.81,West,270,20.0,28.0,85,0.00,,---,0.00,VWS V14.01,2013-05-12 06:55:00,
2013-05-12 03:00:00,40.0,35.0,29.82,WNW,292,13.0,28.0,82,0.00,,---,0.00,VWS V14.01,2013-05-12 07:00:00,
2013-05-12 03:05:00,39.0,33.0,29.82,West,270,10.0,27.0,79,0.00,,---,0.00,VWS V14.01,2013-05-12 07:05:00,
2013-05-12 03:10:00,39.0,33.7,29.82,WNW,292,13.0,27.0,81,0.00,,---,0.00,VWS V14.01,2013-05-12 07:10:00,
2013-05-12 03:15:00,38.0,32.7,29.82,NW,315,21.0,27.0,81,0.00,,---,0.00,VWS V14.01,2013-05-12 07:15:00,
2013-05-12 03:20:00,38.0,32.7,29.82,NW,315,4.0,27.0,81,0.00,,---,0.00,VWS V14.01,2013-05-12 07:20:00,
2013-05-12 03:25:00,38.0,32.7,29.82,NNW,338,13.0,22.0,81,0.00,,---,0.00,VWS V14.01,2013-05-12 07:25:00,
2013-05-12 03:31:00,38.0,32.4,29.82,WNW,292,14.0,24.0,80,0.00,,---,0.00,VWS V14.01,2013-05-12 07:31:00,
2013-05-12 03:36:00,38.0,33.0,29.83,NNW,338,10.0,24.0,82,0.00,,---,0.00,VWS V14.01,2013-05-12 07:36:00,
2013-05-12 03:41:00,38.0,33.0,29.83,WNW,292,10.0,24.0,82,0.00,,---,0.00,VWS V14.01,2013-05-12 07:41:00,
2013-05-12 03:46:00,37.0,31.7,29.83,WNW,292,11.0,21.0,81,0.00,,---,0.00,VWS V14.01,2013-05-12 07:46:00,
2013-05-12 03:51:00,37.0,31.7,29.83,WNW,292,13.0,21.0,81,0.00,,---,0.00,VWS V14.01,2013-05-12 07:51:00,
2013-05-12 03:56:00,37.0,31.7,29.83,NW,315,5.0,21.0,81,0.00,,---,0.00,VWS V14.01,2013-05-12 07:56:00,
2013-05-12 04:01:00,37.0,31.7,29.84,WNW,292,12.0,13.0,81,0.00,,---,0.00,VWS V14.01,2013-05-12 08:01:00,
2013-05-12 04:06:00,37.0,31.7,29.84,NW,315,10.0,14.0,81,0.00,,---,0.00,VWS V14.01,2013-05-12 08:06:00,
2013-05-12 04:11:00,37.0,31.7,29.83,West,270,8.0,14.0,81,0.00,,---,0.00,VWS V14.01,2013-05-12 08:11:00,
2013-05-12 04:16:00,37.0,31.7,29.83,WNW,292,8.0,14.0,81,0.00,,---,0.00,VWS V14.01,2013-05-12 08:16:00,
2013-05-12 04:21:00,36.0,30.8,29.83,WNW,292,10.0,13.0,81,0.00,,---,0.00,VWS V14.01,2013-05-12 08:21:00,
2013-05-12 04:26:00,36.0,31.0,29.83,WSW,248,12.0,13.0,82,0.00,,---,0.00,VWS V14.01,2013-05-12 08:26:00,
2013-05-12 04:31:00,36.0,31.0,29.83,West,270,8.0,14.0,82,0.00,,---,0.00,VWS V14.01,2013-05-12 08:31:00,
2013-05-12 04:37:00,36.0,31.4,29.83,WSW,248,6.0,14.0,83,0.00,,---,0.00,VWS V14.01,2013-05-12 08:37:00,
2013-05-12 04:42:00,35.0,30.4,29.84,WNW,292,4.0,10.0,83,0.00,,---,0.00,VWS V14.01,2013-05-12 08:42:00,
2013-05-12 04:47:00,35.0,30.7,29.83,West,270,8.0,11.0,84,0.00,,---,0.00,VWS V14.01,2013-05-12 08:47:00,
2013-05-12 04:52:00,35.0,30.7,29.83,West,270,7.0,11.0,84,0.00,,---,0.00,VWS V14.01,2013-05-12 08:52:00,
2013-05-12 04:57:00,35.0,30.7,29.83,West,270,6.0,11.0,84,0.00,,---,0.00,VWS V14.01,2013-05-12 08:57:00,
2013-05-12 05:02:00,35.0,31.0,29.83,WNW,292,3.0,9.0,85,0.00,,---,0.00,VWS V14.01,2013-05-12 09:02:00,
2013-05-12 05:07:00,35.0,31.0,29.83,WSW,248,5.0,9.0,85,0.00,,---,0.00,VWS V14.01,2013-05-12 09:07:00,
2013-05-12 05:12:00,35.0,31.2,29.83,WSW,248,5.0,9.0,86,0.00,,---,0.00,VWS V14.01,2013-05-12 09:12:00,
2013-05-12 05:17:00,35.0,31.2,29.83,WSW,248,3.0,9.0,86,0.00,,---,0.00,VWS V14.01,2013-05-12 09:17:00,
2013-05-12 05:22:00,35.0,31.5,29.83,SW,225,3.0,7.0,87,0.00,,---,0.00,VWS V14.01,2013-05-12 09:22:00,
2013-05-12 05:27:00,35.0,31.5,29.83,WSW,248,3.0,7.0,87,0.00,,---,0.00,VWS V14.01,2013-05-12 09:27:00,
2013-05-12 05:32:00,34.0,30.5,29.83,WSW,248,3.0,8.0,87,0.00,,---,0.00,VWS V14.01,2013-05-12 09:32:00,
2013-05-12 05:37:00,34.0,30.8,29.83,SW,225,5.0,8.0,88,0.00,,---,0.00,VWS V14.01,2013-05-12 09:37:00,
2013-05-12 05:43:00,34.0,30.8,29.84,SSW,202,7.0,8.0,88,0.00,,---,0.00,VWS V14.01,2013-05-12 09:43:00,
2013-05-12 05:48:00,34.0,30.8,29.84,SW,225,5.0,8.0,88,0.00,,---,0.00,VWS V14.01,2013-05-12 09:48:00,
2013-05-12 05:53:00,34.0,31.1,29.84,SW,225,6.0,8.0,89,0.00,,---,0.00,VWS V14.01,2013-05-12 09:53:00,
2013-05-12 05:58:00,34.0,31.1,29.84,WSW,248,5.0,8.0,89,0.00,,---,0.00,VWS V14.01,2013-05-12 09:58:00,
2013-05-12 06:03:00,34.0,31.1,29.83,SW,225,5.0,9.0,89,0.00,,---,0.00,VWS V14.01,2013-05-12 10:03:00,
2013-05-12 06:08:00,34.0,31.1,29.83,SW,225,6.0,9.0,89,0.00,,---,0.00,VWS V14.01,2013-05-12 10:08:00,
2013-05-12 06:13:00,34.0,31.4,29.84,SSW,202,4.0,9.0,90,0.00,,---,0.00,VWS V14.01,2013-05-12 10:13:00,
2013-05-12 06:18:00,34.0,31.4,29.83,SW,225,5.0,9.0,90,0.00,,---,0.00,VWS V14.01,2013-05-12 10:18:00,
2013-05-12 06:23:00,34.0,31.4,29.84,SW,225,5.0,8.0,90,0.00,,---,0.00,VWS V14.01,2013-05-12 10:23:00,
2013-05-12 06:28:00,34.0,31.4,29.84,SW,225,5.0,9.0,90,0.00,,---,0.00,VWS V14.01,2013-05-12 10:28:00,
2013-05-12 06:34:00,34.0,31.4,29.84,SW,225,6.0,9.0,90,0.00,,---,0.00,VWS V14.01,2013-05-12 10:34:00,
2013-05-12 06:39:00,34.0,31.4,29.84,SSW,202,3.0,9.0,90,0.00,,---,0.00,VWS V14.01,2013-05-12 10:39:00,
2013-05-12 06:44:00,34.0,31.4,29.84,SW,225,5.0,10.0,90,0.00,,---,0.00,VWS V14.01,2013-05-12 10:44:00,
2013-05-12 06:49:00,35.0,32.6,29.84,SSW,202,8.0,10.0,91,0.00,,---,0.00,VWS V14.01,2013-05-12 10:49:00,
2013-05-12 06:54:00,35.0,32.6,29.84,SW,225,8.0,12.0,91,0.00,,---,0.00,VWS V14.01,2013-05-12 10:54:00,
2013-05-12 06:59:00,35.0,32.4,29.84,SW,225,8.0,12.0,90,0.00,,---,0.00,VWS V14.01,2013-05-12 10:59:00,
2013-05-12 07:04:00,36.0,33.4,29.84,WSW,248,7.0,11.0,90,0.00,,---,0.00,VWS V14.01,2013-05-12 11:04:00,
2013-05-12 07:09:00,36.0,33.1,29.84,WSW,248,6.0,12.0,89,0.00,,---,0.00,VWS V14.01,2013-05-12 11:09:00,
2013-05-12 07:14:00,36.0,33.1,29.84,SW,225,9.0,12.0,89,0.00,,---,0.00,VWS V14.01,2013-05-12 11:14:00,
2013-05-12 07:19:00,36.0,32.8,29.84,SW,225,5.0,12.0,88,0.00,,---,0.00,VWS V14.01,2013-05-12 11:19:00,
2013-05-12 07:24:00,36.0,32.8,29.84,WSW,248,10.0,12.0,88,0.00,,---,0.00,VWS V14.01,2013-05-12 11:24:00,
2013-05-12 07:30:00,37.0,33.5,29.84,WSW,248,6.0,14.0,87,0.00,,---,0.00,VWS V14.01,2013-05-12 11:30:00,
2013-05-12 07:35:00,37.0,33.2,29.84,SW,225,6.0,14.0,86,0.00,,---,0.00,VWS V14.01,2013-05-12 11:35:00,
2013-05-12 07:40:00,37.0,32.9,29.84,SW,225,10.0,15.0,85,0.00,,---,0.00,VWS V14.01,2013-05-12 11:40:00,
2013-05-12 07:45:00,38.0,33.6,29.84,WSW,248,8.0,13.0,84,0.00,,---,0.00,VWS V14.01,2013-05-12 11:45:00,
2013-05-12 07:50:00,38.0,32.7,29.84,SW,225,14.0,14.0,81,0.00,,---,0.00,VWS V14.01,2013-05-12 11:50:00,
2013-05-12 07:55:00,38.0,32.4,29.84,WSW,248,14.0,16.0,80,0.00,,---,0.00,VWS V14.01,2013-05-12 11:55:00,
2013-05-12 08:00:00,39.0,33.0,29.84,WSW,248,11.0,17.0,79,0.00,,---,0.00,VWS V14.01,2013-05-12 12:00:00,
2013-05-12 08:05:00,39.0,33.0,29.84,WSW,248,14.0,17.0,79,0.00,,---,0.00,VWS V14.01,2013-05-12 12:05:00,
2013-05-12 08:10:00,39.0,33.0,29.84,SW,225,11.0,17.0,79,0.00,,---,0.00,VWS V14.01,2013-05-12 12:10:00,
2013-05-12 08:15:00,39.0,33.0,29.84,WSW,248,12.0,17.0,79,0.00,,---,0.00,VWS V14.01,2013-05-12 12:15:00,
2013-05-12 08:21:00,39.0,32.7,29.83,WSW,248,11.0,18.0,78,0.00,,---,0.00,VWS V14.01,2013-05-12 12:21:00,
2013-05-12 08:26:00,39.0,32.4,29.84,WSW,248,9.0,19.0,77,0.00,,---,0.00,VWS V14.01,2013-05-12 12:26:00,
2013-05-12 08:31:00,40.0,33.1,29.84,West,270,9.0,22.0,76,0.00,,---,0.00,VWS V14.01,2013-05-12 12:31:00,
2013-05-12 08:36:00,40.0,33.1,29.84,SW,225,15.0,22.0,76,0.00,,---,0.00,VWS V14.01,2013-05-12 12:36:00,
2013-05-12 08:41:00,41.0,33.4,29.84,WSW,248,23.0,23.0,74,0.00,,---,0.00,VWS V14.01,2013-05-12 12:41:00,
2013-05-12 08:46:00,41.0,33.0,29.84,SW,225,11.0,24.0,73,0.00,,---,0.00,VWS V14.01,2013-05-12 12:46:00,
2013-05-12 08:51:00,41.0,33.0,29.84,SW,225,10.0,24.0,73,0.00,,---,0.00,VWS V14.01,2013-05-12 12:51:00,
2013-05-12 08:56:00,41.0,32.0,29.84,WSW,248,14.0,24.0,70,0.00,,---,0.00,VWS V14.01,2013-05-12 12:56:00,
2013-05-12 09:01:00,41.0,32.0,29.84,WSW,248,15.0,19.0,70,0.00,,---,0.00,VWS V14.01,2013-05-12 13:01:00,
2013-05-12 09:07:00,42.0,32.9,29.84,West,270,11.0,19.0,70,0.00,,---,0.00,VWS V14.01,2013-05-12 13:07:00,
2013-05-12 09:12:00,42.0,32.2,29.84,West,270,14.0,19.0,68,0.00,,---,0.00,VWS V14.01,2013-05-12 13:12:00,
2013-05-12 09:17:00,42.0,31.5,29.84,WSW,248,16.0,25.0,66,0.00,,---,0.00,VWS V14.01,2013-05-12 13:17:00,
2013-05-12 09:22:00,42.0,31.5,29.83,SW,225,22.0,22.0,66,0.00,,---,0.00,VWS V14.01,2013-05-12 13:22:00,
2013-05-12 09:27:00,42.0,30.7,29.83,West,270,12.0,24.0,64,0.00,,---,0.00,VWS V14.01,2013-05-12 13:27:00,
2013-05-12 09:32:00,42.0,30.3,29.83,WNW,292,14.0,26.0,63,0.00,,---,0.00,VWS V14.01,2013-05-12 13:32:00,
2013-05-12 09:37:00,42.0,29.5,29.83,West,270,13.0,28.0,61,0.00,,---,0.00,VWS V14.01,2013-05-12 13:37:00,
2013-05-12 09:42:00,42.0,29.9,29.83,SW,225,16.0,19.0,62,0.00,,---,0.00,VWS V14.01,2013-05-12 13:42:00,
2013-05-12 09:47:00,41.0,28.6,29.84,West,270,19.0,27.0,61,0.00,,---,0.00,VWS V14.01,2013-05-12 13:47:00,
2013-05-12 09:53:00,41.0,30.9,29.85,WSW,248,22.0,27.0,67,0.00,,---,0.00,VWS V14.01,2013-05-12 13:53:00,
2013-05-12 09:58:00,39.0,32.1,29.84,WNW,292,9.0,27.0,76,0.00,,---,0.00,VWS V14.01,2013-05-12 13:58:00,
2013-05-12 10:03:00,40.0,34.0,29.84,West,270,21.0,21.0,79,0.01,,---,0.01,VWS V14.01,2013-05-12 14:03:00,
2013-05-12 10:08:00,40.0,32.1,29.84,WNW,292,17.0,21.0,73,0.01,,---,0.01,VWS V14.01,2013-05-12 14:08:00,
2013-05-12 10:13:00,40.0,32.1,29.84,WSW,248,16.0,21.0,73,0.01,,---,0.01,VWS V14.01,2013-05-12 14:13:00,
2013-05-12 10:18:00,40.0,32.1,29.84,WNW,292,13.0,21.0,73,0.01,,---,0.01,VWS V14.01,2013-05-12 14:18:00,
2013-05-12 10:23:00,41.0,31.3,29.83,West,270,21.0,27.0,68,0.01,,---,0.01,VWS V14.01,2013-05-12 14:23:00,
2013-05-12 10:28:00,42.0,31.9,29.83,West,270,10.0,27.0,67,0.01,,---,0.01,VWS V14.01,2013-05-12 14:28:00,
2013-05-12 10:33:00,43.0,31.7,29.84,WSW,248,11.0,27.0,64,0.01,,---,0.01,VWS V14.01,2013-05-12 14:33:00,
2013-05-12 10:38:00,42.0,30.3,29.84,West,270,10.0,31.0,63,0.01,,---,0.01,VWS V14.01,2013-05-12 14:38:00,
2013-05-12 10:44:00,42.0,29.5,29.83,WNW,292,6.0,22.0,61,0.01,,---,0.01,VWS V14.01,2013-05-12 14:44:00,
2013-05-12 10:49:00,43.0,30.1,29.84,WSW,248,11.0,32.0,60,0.01,,---,0.01,VWS V14.01,2013-05-12 14:49:00,
2013-05-12 10:54:00,43.0,29.2,29.83,West,270,16.0,32.0,58,0.01,,---,0.01,VWS V14.01,2013-05-12 14:54:00,
2013-05-12 10:59:00,43.0,28.8,29.84,NW,315,21.0,32.0,57,0.01,,---,0.01,VWS V14.01,2013-05-12 14:59:00,
2013-05-12 11:04:00,42.0,27.9,29.84,WNW,292,21.0,24.0,57,0.01,,---,0.01,VWS V14.01,2013-05-12 15:04:00,
2013-05-12 11:09:00,42.0,29.1,29.84,WNW,292,12.0,24.0,60,0.01,,---,0.01,VWS V14.01,2013-05-12 15:09:00,
2013-05-12 11:14:00,43.0,28.4,29.84,West,270,24.0,29.0,56,0.01,,---,0.01,VWS V14.01,2013-05-12 15:14:00,
2013-05-12 11:19:00,44.0,29.3,29.84,WSW,248,23.0,33.0,56,0.01,,---,0.01,VWS V14.01,2013-05-12 15:19:00,
2013-05-12 11:24:00,43.0,27.0,29.84,SW,225,20.0,33.0,53,0.00,,---,0.01,VWS V14.01,2013-05-12 15:24:00,
2013-05-12 11:29:00,44.0,27.0,29.84,WNW,292,11.0,33.0,51,0.00,,---,0.01,VWS V14.01,2013-05-12 15:29:00,
2013-05-12 11:35:00,44.0,28.9,29.84,West,270,12.0,33.0,55,0.00,,---,0.01,VWS V14.01,2013-05-12 15:35:00,
2013-05-12 11:40:00,44.0,27.0,29.84,WNW,292,28.0,33.0,51,0.00,,---,0.01,VWS V14.01,2013-05-12 15:40:00,
2013-05-12 11:45:00,43.0,27.5,29.84,WSW,248,18.0,35.0,54,0.00,,---,0.01,VWS V14.01,2013-05-12 15:45:00,
2013-05-12 11:50:00,43.0,27.5,29.84,WNW,292,13.0,35.0,54,0.00,,---,0.01,VWS V14.01,2013-05-12 15:50:00,
2013-05-12 11:55:00,44.0,27.5,29.85,WSW,248,24.0,35.0,52,0.00,,---,0.01,VWS V14.01,2013-05-12 15:55:00,
2013-05-12 12:00:00,44.0,27.5,29.84,WSW,248,23.0,35.0,52,0.00,,---,0.01,VWS V14.01,2013-05-12 16:00:00,
2013-05-12 12:05:00,44.0,26.6,29.85,West,270,19.0,31.0,50,0.00,,---,0.01,VWS V14.01,2013-05-12 16:05:00,
2013-05-12 12:10:00,44.0,26.6,29.85,West,270,16.0,36.0,50,0.00,,---,0.01,VWS V14.01,2013-05-12 16:10:00,
2013-05-12 12:15:00,44.0,26.6,29.85,WNW,292,16.0,36.0,50,0.00,,---,0.01,VWS V14.01,2013-05-12 16:15:00,
2013-05-12 12:20:00,43.0,26.1,29.85,West,270,19.0,36.0,51,0.00,,---,0.01,VWS V14.01,2013-05-12 16:20:00,
2013-05-12 12:25:00,43.0,27.0,29.85,West,270,18.0,28.0,53,0.00,,---,0.01,VWS V14.01,2013-05-12 16:25:00,
2013-05-12 12:31:00,43.0,26.6,29.85,NNW,338,13.0,28.0,52,0.00,,---,0.01,VWS V14.01,2013-05-12 16:31:00,
2013-05-12 12:36:00,43.0,26.1,29.85,WNW,292,21.0,33.0,51,0.00,,---,0.01,VWS V14.01,2013-05-12 16:36:00,
2013-05-12 12:41:00,43.0,28.4,29.85,West,270,11.0,33.0,56,0.00,,---,0.01,VWS V14.01,2013-05-12 16:41:00,
2013-05-12 12:46:00,43.0,27.5,29.85,NW,315,10.0,29.0,54,0.00,,---,0.01,VWS V14.01,2013-05-12 16:46:00,
2013-05-12 12:51:00,43.0,26.1,29.86,WNW,292,22.0,30.0,51,0.00,,---,0.01,VWS V14.01,2013-05-12 16:51:00,
2013-05-12 12:56:00,43.0,26.6,29.85,West,270,18.0,30.0,52,0.00,,---,0.01,VWS V14.01,2013-05-12 16:56:00,
2013-05-12 13:01:00,43.0,26.6,29.86,WNW,292,21.0,27.0,52,0.00,,---,0.01,VWS V14.01,2013-05-12 17:01:00,
2013-05-12 13:06:00,43.0,27.0,29.86,WNW,292,18.0,27.0,53,0.00,,---,0.01,VWS V14.01,2013-05-12 17:06:00,
2013-05-12 13:11:00,45.0,29.8,29.86,WNW,292,14.0,27.0,55,0.00,,---,0.01,VWS V14.01,2013-05-12 17:11:00,
2013-05-12 13:17:00,45.0,28.5,29.85,WNW,292,8.0,27.0,52,0.00,,---,0.01,VWS V14.01,2013-05-12 17:17:00,
2013-05-12 13:22:00,44.0,25.1,29.86,NNW,338,14.0,25.0,47,0.00,,---,0.01,VWS V14.01,2013-05-12 17:22:00,
2013-05-12 13:27:00,45.0,27.0,29.86,WSW,248,15.0,26.0,49,0.00,,---,0.01,VWS V14.01,2013-05-12 17:27:00,
2013-05-12 13:32:00,45.0,27.5,29.86,West,270,16.0,26.0,50,0.00,,---,0.01,VWS V14.01,2013-05-12 17:32:00,
2013-05-12 13:37:00,44.0,27.5,29.86,West,270,8.0,26.0,52,0.00,,---,0.01,VWS V14.01,2013-05-12 17:37:00,
2013-05-12 13:42:00,43.0,25.6,29.87,WNW,292,21.0,35.0,50,0.00,,---,0.01,VWS V14.01,2013-05-12 17:42:00,
2013-05-12 13:47:00,44.0,27.0,29.87,West,270,28.0,35.0,51,0.00,,---,0.01,VWS V14.01,2013-05-12 17:47:00,
2013-05-12 13:52:00,44.0,28.0,29.87,WSW,248,19.0,35.0,53,0.00,,---,0.01,VWS V14.01,2013-05-12 17:52:00,
2013-05-12 13:57:00,44.0,28.4,29.87,WNW,292,21.0,35.0,54,0.00,,---,0.01,VWS V14.01,2013-05-12 17:57:00,
2013-05-12 14:03:00,43.0,27.5,29.87,West,270,23.0,26.0,54,0.00,,---,0.01,VWS V14.01,2013-05-12 18:03:00,
2013-05-12 14:08:00,43.0,26.6,29.87,WNW,292,22.0,26.0,52,0.00,,---,0.01,VWS V14.01,2013-05-12 18:08:00,
2013-05-12 14:13:00,43.0,26.6,29.87,WNW,292,22.0,29.0,52,0.00,,---,0.01,VWS V14.01,2013-05-12 18:13:00,
2013-05-12 14:18:00,43.0,26.6,29.87,WNW,292,21.0,30.0,52,0.00,,---,0.01,VWS V14.01,2013-05-12 18:18:00,
2013-05-12 14:23:00,43.0,27.0,29.87,WSW,248,10.0,27.0,53,0.00,,---,0.01,VWS V14.01,2013-05-12 18:23:00,
2013-05-12 14:28:00,43.0,27.0,29.87,West,270,19.0,31.0,53,0.00,,---,0.01,VWS V14.01,2013-05-12 18:28:00,
2013-05-12 14:33:00,45.0,29.8,29.87,West,270,10.0,31.0,55,0.00,,---,0.01,VWS V14.01,2013-05-12 18:33:00,
2013-05-12 14:38:00,45.0,28.5,29.87,West,270,10.0,31.0,52,0.00,,---,0.01,VWS V14.01,2013-05-12 18:38:00,
2013-05-12 14:43:00,45.0,27.0,29.88,WNW,292,22.0,30.0,49,0.00,,---,0.01,VWS V14.01,2013-05-12 18:43:00,
2013-05-12 14:49:00,44.0,26.1,29.88,WNW,292,19.0,32.0,49,0.00,,---,0.01,VWS V14.01,2013-05-12 18:49:00,
2013-05-12 14:54:00,43.0,26.1,29.87,WNW,292,19.0,32.0,51,0.00,,---,0.01,VWS V14.01,2013-05-12 18:54:00,
2013-05-12 14:59:00,43.0,26.1,29.88,West,270,14.0,32.0,51,0.00,,---,0.01,VWS V14.01,2013-05-12 18:59:00,
2013-05-12 15:04:00,43.0,27.0,29.87,West,270,19.0,25.0,53,0.00,,---,0.01,VWS V14.01,2013-05-12 19:04:00,
2013-05-12 15:09:00,43.0,27.0,29.88,WNW,292,17.0,25.0,53,0.00,,---,0.01,VWS V14.01,2013-05-12 19:09:00,
2013-05-12 15:14:00,44.0,26.6,29.87,WNW,292,29.0,32.0,50,0.00,,---,0.01,VWS V14.01,2013-05-12 19:14:00,
2013-05-12 15:19:00,43.0,25.6,29.88,West,270,14.0,32.0,50,0.00,,---,0.01,VWS V14.01,2013-05-12 19:19:00,
2013-05-12 15:24:00,44.0,27.5,29.88,WNW,292,19.0,24.0,52,0.00,,---,0.01,VWS V14.01,2013-05-12 19:24:00,
2013-05-12 15:29:00,44.0,26.6,29.87,West,270,10.0,29.0,50,0.00,,---,0.01,VWS V14.01,2013-05-12 19:29:00,
2013-05-12 15:34:00,45.0,26.0,29.87,West,270,26.0,31.0,47,0.00,,---,0.01,VWS V14.01,2013-05-12 19:34:00,
2013-05-12 15:40:00,45.0,26.0,29.88,West,270,21.0,33.0,47,0.00,,---,0.01,VWS V14.01,2013-05-12 19:40:00,
2013-05-12 15:45:00,44.0,24.6,29.88,WNW,292,18.0,33.0,46,0.00,,---,0.01,VWS V14.01,2013-05-12 19:45:00,
2013-05-12 15:50:00,44.0,26.1,29.88,WNW,292,18.0,33.0,49,0.00,,---,0.01,VWS V14.01,2013-05-12 19:50:00,
2013-05-12 15:55:00,44.0,26.1,29.88,West,270,19.0,33.0,49,0.00,,---,0.01,VWS V14.01,2013-05-12 19:55:00,
2013-05-12 16:00:00,44.0,26.6,29.88,WSW,248,11.0,33.0,50,0.00,,---,0.01,VWS V14.01,2013-05-12 20:00:00,
2013-05-12 16:05:00,44.0,26.6,29.88,West,270,18.0,34.0,50,0.00,,---,0.01,VWS V14.01,2013-05-12 20:05:00,
2013-05-12 16:10:00,43.0,26.1,29.89,West,270,11.0,34.0,51,0.00,,---,0.01,VWS V14.01,2013-05-12 20:10:00,
2013-05-12 16:15:00,43.0,27.0,29.89,WNW,292,20.0,34.0,53,0.00,,---,0.01,VWS V14.01,2013-05-12 20:15:00,
2013-05-12 16:20:00,43.0,27.0,29.89,WNW,292,13.0,34.0,53,0.00,,---,0.01,VWS V14.01,2013-05-12 20:20:00,
2013-05-12 16:25:00,43.0,26.6,29.89,West,270,15.0,27.0,52,0.00,,---,0.01,VWS V14.01,2013-05-12 20:25:00,
2013-05-12 16:31:00,44.0,26.6,29.89,West,270,16.0,32.0,50,0.00,,---,0.01,VWS V14.01,2013-05-12 20:31:00,
2013-05-12 16:36:00,43.0,25.2,29.89,West,270,27.0,32.0,49,0.00,,---,0.01,VWS V14.01,2013-05-12 20:36:00,
2013-05-12 16:41:00,44.0,27.0,29.89,WNW,292,13.0,32.0,51,0.00,,---,0.01,VWS V14.01,2013-05-12 20:41:00,
2013-05-12 16:46:00,44.0,26.6,29.89,WNW,292,21.0,24.0,50,0.00,,---,0.01,VWS V14.01,2013-05-12 20:46:00,
2013-05-12 16:51:00,44.0,27.0,29.89,West,270,12.0,24.0,51,0.00,,---,0.01,VWS V14.01,2013-05-12 20:51:00,
2013-05-12 16:56:00,44.0,26.1,29.89,West,270,16.0,24.0,49,0.00,,---,0.01,VWS V14.01,2013-05-12 20:56:00,
2013-05-12 17:01:00,44.0,25.6,29.89,West,270,18.0,21.0,48,0.00,,---,0.01,VWS V14.01,2013-05-12 21:01:00,
2013-05-12 17:06:00,45.0,25.5,29.89,WSW,248,16.0,32.0,46,0.00,,---,0.01,VWS V14.01,2013-05-12 21:06:00,
2013-05-12 17:11:00,45.0,26.5,29.89,West,270,17.0,33.0,48,0.00,,---,0.01,VWS V14.01,2013-05-12 21:11:00,
2013-05-12 17:17:00,45.0,26.0,29.89,WSW,248,19.0,33.0,47,0.00,,---,0.01,VWS V14.01,2013-05-12 21:17:00,
2013-05-12 17:22:00,45.0,25.5,29.89,WSW,248,18.0,24.0,46,0.00,,---,0.01,VWS V14.01,2013-05-12 21:22:00,
2013-05-12 17:27:00,46.0,26.4,29.90,West,270,8.0,24.0,46,0.00,,---,0.01,VWS V14.01,2013-05-12 21:27:00,
2013-05-12 17:32:00,45.0,25.5,29.89,WNW,292,24.0,30.0,46,0.00,,---,0.01,VWS V14.01,2013-05-12 21:32:00,
2013-05-12 17:37:00,45.0,26.0,29.89,WNW,292,13.0,30.0,47,0.00,,---,0.01,VWS V14.01,2013-05-12 21:37:00,
2013-05-12 17:42:00,45.0,25.5,29.90,West,270,22.0,23.0,46,0.00,,---,0.01,VWS V14.01,2013-05-12 21:42:00,
2013-05-12 17:47:00,44.0,24.0,29.90,West,270,27.0,29.0,45,0.00,,---,0.01,VWS V14.01,2013-05-12 21:47:00,
2013-05-12 17:52:00,44.0,24.6,29.90,West,270,17.0,34.0,46,0.00,,---,0.01,VWS V14.01,2013-05-12 21:52:00,
2013-05-12 17:57:00,44.0,25.1,29.90,WSW,248,31.0,34.0,47,0.00,,---,0.01,VWS V14.01,2013-05-12 21:57:00,
2013-05-12 18:02:00,44.0,25.6,29.90,West,270,21.0,26.0,48,0.00,,---,0.01,VWS V14.01,2013-05-12 22:02:00,
2013-05-12 18:07:00,44.0,25.6,29.90,WSW,248,20.0,32.0,48,0.00,,---,0.01,VWS V14.01,2013-05-12 22:07:00,
2013-05-12 18:13:00,43.0,25.6,29.90,West,270,23.0,32.0,50,0.00,,---,0.01,VWS V14.01,2013-05-12 22:13:00,
2013-05-12 18:18:00,43.0,25.2,29.91,West,270,23.0,32.0,49,0.00,,---,0.01,VWS V14.01,2013-05-12 22:18:00,
2013-05-12 18:23:00,43.0,25.6,29.91,WNW,292,16.0,23.0,50,0.00,,---,0.01,VWS V14.01,2013-05-12 22:23:00,
2013-05-12 18:28:00,43.0,25.6,29.91,WNW,292,18.0,28.0,50,0.00,,---,0.01,VWS V14.01,2013-05-12 22:28:00,
2013-05-12 18:33:00,43.0,26.6,29.91,WNW,292,6.0,28.0,52,0.00,,---,0.01,VWS V14.01,2013-05-12 22:33:00,
2013-05-12 18:38:00,43.0,26.6,29.91,West,270,8.0,28.0,52,0.00,,---,0.01,VWS V14.01,2013-05-12 22:38:00,
2013-05-12 18:43:00,43.0,26.1,29.91,West,270,16.0,22.0,51,0.00,,---,0.01,VWS V14.01,2013-05-12 22:43:00,
2013-05-12 18:48:00,43.0,26.6,29.91,WNW,292,17.0,25.0,52,0.00,,---,0.01,VWS V14.01,2013-05-12 22:48:00,
2013-05-12 18:53:00,43.0,27.5,29.91,WNW,292,19.0,26.0,54,0.00,,---,0.01,VWS V14.01,2013-05-12 22:53:00,
2013-05-12 18:58:00,43.0,28.0,29.91,WNW,292,14.0,26.0,55,0.00,,---,0.01,VWS V14.01,2013-05-12 22:58:00,
2013-05-12 19:04:00,43.0,28.0,29.91,WNW,292,27.0,27.0,55,0.00,,---,0.01,VWS V14.01,2013-05-12 23:04:00,
2013-05-12 19:09:00,43.0,27.5,29.91,WSW,248,16.0,29.0,54,0.00,,---,0.01,VWS V14.01,2013-05-12 23:09:00,
2013-05-12 19:14:00,43.0,27.5,29.91,West,270,23.0,34.0,54,0.00,,---,0.01,VWS V14.01,2013-05-12 23:14:00,
2013-05-12 19:19:00,43.0,28.0,29.92,WNW,292,24.0,34.0,55,0.00,,---,0.01,VWS V14.01,2013-05-12 23:19:00,
2013-05-12 19:24:00,43.0,28.4,29.92,WSW,248,18.0,30.0,56,0.00,,---,0.01,VWS V14.01,2013-05-12 23:24:00,
2013-05-12 19:29:00,43.0,28.8,29.92,West,270,18.0,30.0,57,0.00,,---,0.01,VWS V14.01,2013-05-12 23:29:00,
2013-05-12 19:34:00,42.0,28.3,29.91,West,270,13.0,30.0,58,0.00,,---,0.01,VWS V14.01,2013-05-12 23:34:00,
2013-05-12 19:39:00,42.0,28.7,29.92,West,270,10.0,30.0,59,0.00,,---,0.01,VWS V14.01,2013-05-12 23:39:00,
2013-05-12 19:44:00,42.0,29.1,29.92,WNW,292,15.0,22.0,60,0.00,,---,0.01,VWS V14.01,2013-05-12 23:44:00,
2013-05-12 19:50:00,40.0,32.4,29.93,WNW,292,9.0,36.0,74,0.00,,---,0.01,VWS V14.01,2013-05-12 23:50:00,
2013-05-12 19:55:00,39.0,32.7,29.93,West,270,17.0,36.0,78,0.00,,---,0.01,VWS V14.01,2013-05-12 23:55:00,
2013-05-12 20:00:00,39.0,32.1,29.93,WNW,292,21.0,36.0,76,0.00,,---,0.01,VWS V14.01,2013-05-13 00:00:00,
2013-05-12 20:05:00,39.0,32.1,29.93,West,270,18.0,24.0,76,0.00,,---,0.01,VWS V14.01,2013-05-13 00:05:00,
2013-05-12 20:10:00,39.0,31.4,29.93,WNW,292,10.0,24.0,74,0.00,,---,0.01,VWS V14.01,2013-05-13 00:10:00,
2013-05-12 20:15:00,39.0,31.8,29.93,West,270,10.0,26.0,75,0.00,,---,0.01,VWS V14.01,2013-05-13 00:15:00,
2013-05-12 20:20:00,39.0,32.1,29.94,West,270,11.0,26.0,76,0.00,,---,0.01,VWS V14.01,2013-05-13 00:20:00,
2013-05-12 20:25:00,39.0,33.0,29.94,WSW,248,12.0,20.0,79,0.00,,---,0.01,VWS V14.01,2013-05-13 00:25:00,
2013-05-12 20:30:00,38.0,32.7,29.94,WSW,248,23.0,30.0,81,0.00,,---,0.01,VWS V14.01,2013-05-13 00:30:00,
2013-05-12 20:35:00,38.0,33.0,29.94,WNW,292,16.0,30.0,82,0.00,,---,0.01,VWS V14.01,2013-05-13 00:35:00,
2013-05-12 20:40:00,38.0,33.3,29.93,WSW,248,12.0,30.0,83,0.00,,---,0.01,VWS V14.01,2013-05-13 00:40:00,
2013-05-12 20:46:00,38.0,33.3,29.94,WNW,292,11.0,20.0,83,0.00,,---,0.01,VWS V14.01,2013-05-13 00:46:00,
2013-05-12 20:51:00,38.0,33.3,29.94,WSW,248,6.0,20.0,83,0.00,,---,0.01,VWS V14.01,2013-05-13 00:51:00,
2013-05-12 20:56:00,38.0,33.3,29.94,WSW,248,11.0,20.0,83,0.00,,---,0.01,VWS V14.01,2013-05-13 00:56:00,
2013-05-12 21:01:00,38.0,33.3,29.94,WSW,248,8.0,20.0,83,0.00,,---,0.01,VWS V14.01,2013-05-13 01:01:00,
2013-05-12 21:06:00,38.0,33.9,29.94,West,270,5.0,14.0,85,0.00,,---,0.01,VWS V14.01,2013-05-13 01:06:00,
2013-05-12 21:11:00,38.0,34.2,29.95,West,270,4.0,14.0,86,0.00,,---,0.01,VWS V14.01,2013-05-13 01:11:00,
2013-05-12 21:16:00,38.0,34.8,29.96,West,270,9.0,14.0,88,0.00,,---,0.01,VWS V14.01,2013-05-13 01:16:00,
2013-05-12 21:21:00,37.0,33.8,29.96,WSW,248,8.0,10.0,88,0.00,,---,0.01,VWS V14.01,2013-05-13 01:21:00,
2013-05-12 21:26:00,35.0,32.1,29.97,WNW,292,10.0,14.0,89,0.01,,---,0.02,VWS V14.01,2013-05-13 01:26:00,
2013-05-12 21:31:00,35.0,32.6,29.97,WNW,292,7.0,14.0,91,0.02,,---,0.03,VWS V14.01,2013-05-13 01:31:00,
2013-05-12 21:36:00,35.0,33.2,29.97,WNW,292,8.0,15.0,93,0.03,,---,0.04,VWS V14.01,2013-05-13 01:36:00,
2013-05-12 21:41:00,35.0,33.2,29.98,WNW,292,7.0,7.0,93,0.05,,---,0.06,VWS V14.01,2013-05-13 01:41:00,
2013-05-12 21:46:00,36.0,34.2,29.98,NW,315,6.0,14.0,93,0.05,,---,0.06,VWS V14.01,2013-05-13 01:46:00,
2013-05-12 21:52:00,36.0,34.2,29.98,WNW,292,8.0,14.0,93,0.06,,---,0.07,VWS V14.01,2013-05-13 01:52:00,
2013-05-12 21:57:00,36.0,34.2,29.98,WNW,292,5.0,14.0,93,0.06,,---,0.07,VWS V14.01,2013-05-13 01:57:00,
2013-05-12 22:02:00,36.0,34.2,29.98,NW,315,9.0,13.0,93,0.07,,---,0.08,VWS V14.01,2013-05-13 02:02:00,
2013-05-12 22:07:00,36.0,34.2,29.98,West,270,8.0,21.0,93,0.07,,---,0.08,VWS V14.01,2013-05-13 02:07:00,
2013-05-12 22:12:00,36.0,34.2,29.99,NW,315,6.0,22.0,93,0.07,,---,0.08,VWS V14.01,2013-05-13 02:12:00,
2013-05-12 22:17:00,36.0,33.9,29.99,NNW,338,4.0,22.0,92,0.07,,---,0.08,VWS V14.01,2013-05-13 02:17:00,
2013-05-12 22:22:00,36.0,33.9,29.99,NW,315,10.0,14.0,92,0.07,,---,0.08,VWS V14.01,2013-05-13 02:22:00,
2013-05-12 22:27:00,36.0,33.4,30.00,NNW,338,4.0,18.0,90,0.07,,---,0.08,VWS V14.01,2013-05-13 02:27:00,
2013-05-12 22:32:00,36.0,33.4,30.00,WNW,292,11.0,18.0,90,0.07,,---,0.08,VWS V14.01,2013-05-13 02:32:00,
2013-05-12 22:37:00,36.0,31.9,30.00,NW,315,7.0,21.0,85,0.07,,---,0.08,VWS V14.01,2013-05-13 02:37:00,
2013-05-12 22:42:00,36.0,30.4,30.00,NW,315,8.0,21.0,80,0.03,,---,0.08,VWS V14.01,2013-05-13 02:42:00,
2013-05-12 22:47:00,36.0,30.8,30.00,WNW,292,7.0,23.0,81,0.03,,---,0.08,VWS V14.01,2013-05-13 02:47:00,
2013-05-12 22:52:00,36.0,30.1,30.01,NW,315,21.0,23.0,79,0.03,,---,0.08,VWS V14.01,2013-05-13 02:52:00,
2013-05-12 22:58:00,36.0,29.2,30.00,WNW,292,9.0,23.0,76,0.03,,---,0.08,VWS V14.01,2013-05-13 02:58:00,
2013-05-12 23:03:00,36.0,28.5,30.00,North,0,5.0,19.0,74,0.00,,---,0.08,VWS V14.01,2013-05-13 03:03:00,
2013-05-12 23:08:00,36.0,28.9,30.00,West,270,8.0,19.0,75,0.00,,---,0.08,VWS V14.01,2013-05-13 03:08:00,
2013-05-12 23:13:00,36.0,28.9,30.00,WNW,292,12.0,19.0,75,0.00,,---,0.08,VWS V14.01,2013-05-13 03:13:00,
2013-05-12 23:18:00,36.0,29.2,30.00,WNW,292,10.0,19.0,76,0.00,,---,0.08,VWS V14.01,2013-05-13 03:18:00,
2013-05-12 23:23:00,36.0,28.9,30.00,WNW,292,9.0,16.0,75,0.00,,---,0.08,VWS V14.01,2013-05-13 03:23:00,
2013-05-12 23:28:00,36.0,28.9,30.00,WNW,292,8.0,16.0,75,0.00,,---,0.08,VWS V14.01,2013-05-13 03:28:00,
2013-05-12 23:33:00,36.0,29.2,30.00,West,270,6.0,16.0,76,0.00,,---,0.08,VWS V14.01,2013-05-13 03:33:00,
2013-05-12 23:38:00,36.0,29.5,30.00,NW,315,3.0,16.0,77,0.00,,---,0.08,VWS V14.01,2013-05-13 03:38:00,
2013-05-12 23:43:00,36.0,29.5,30.00,West,270,6.0,13.0,77,0.00,,---,0.08,VWS V14.01,2013-05-13 03:43:00,
2013-05-12 23:48:00,36.0,29.8,30.00,West,270,3.0,13.0,78,0.00,,---,0.08,VWS V14.01,2013-05-13 03:48:00,
2013-05-12 23:53:00,36.0,30.1,30.00,NNW,338,1.0,13.0,79,0.00,,---,0.08,VWS V14.01,2013-05-13 03:53:00,
2013-05-12 23:58:00,36.0,29.8,30.00,WNW,292,10.0,14.0,78,0.00,,---,0.08,VWS V14.01,2013-05-13 03:58:00,